DELTA 1 DEB, 21294

Orbit data source: Space-Track

DELTA 1 DEB, 21294 is space debris in SSO originally from a launch on Thu, 12 Jun 1975 UTC launched from the Air Force Western Test Range (AFWTR). Debris objects in space refer to the collection of defunct objects orbiting the Earth. Examples of debris include non-operational satellites, rocket bodies, and fragments generated from explosions, collisions, or faulty payload assembly.

Loading next visibility...
Identifier
21294, 1975-052AF
Orbit
SSO
Country
Flag of USUS
Related business
Manufacturer
Unknown
Mission
Spacecraft
Bus & Motor
Unknown
Mass
Unknown
Launch date (UTC)
1975-06-12 (50 years ago)
Launch vehicle
Unknown
Launch site
Air Force Western Test Range (AFWTR)
Object type
Payload
Rocket body
Debris
Shape & HBR
Unknown
Radar Cross Section
0.260 m², Medium (>0.1 m² and < 1m²)

Expand to show TLE details & history
Last TLE update: 12 hours ago

TLE from 12 hours ago
0 DELTA 1 DEB
1 21294U 75052AF  25259.06258564  .00000066  00000-0  31819-3 0  9993
2 21294  99.8281  61.5149 0251292  83.4824  32.2290 12.94529009621135
Epoch: 2025-09-16T01:30Z
TLE epoch observation values (Epoch: 2025-09-16T01:30:07.399Z)
Latitude
61.21629°
Longitude
-117.9913°
Altitude
1,132.48 km
Speed
7.369 km/s
True Right ascension
17h 19m 11s
True Declination
61° 04' 41"
Sunlit
Object was in daylight at epoch
Visualization orbit readout
Latitude
Unknown
Longitude
Unknown
Altitude
Unknown
Speed
Unknown
Apparent Right ascension
Unknown
Apparent Declination
Unknown
Sunlit
N/A
Visualization observer readout
Local Sidereal Time
06:36:18
Azimuth
Unknown
Elevation
Unknown
Doppler factor
Unknown
Orbital elements
Apogee altitude
1,473.449 km
Perigee altitude
1,088.514 km
Semi-major axis
7,659.118 km
Eccentricity
0.02513
Inclination
99.8281°
RAAN
61.5149°
Arg. of periapsis
83.4824°
True anomaly
33.80637°
Mean anomaly
32.229°
Eccentric anomaly
33.01345°
Mean motion
3.23799 °/min
Orbital period
111.18 mins
BSTAR
0.00031819
Loading maneuver chart data...
Computing Atmospheric mass density...
Loading historical data...
Loading historical data...
Loading historical data...
Loading historical data...
Loading historical data...
Loading historical data...
Loading historical data...

Documentation

Showing up to 5 results
|